Glens Falls, NY

11:06 PM EST on November 19, 2019 (GMT -0500)
Bennett Memorial

Weather History for KGFL - September, 2019

Change the Weather History Date:

Friday, September 6, 2019

  Actual Average Record
Temperature  
Mean Temperature 59 °F 62 °F  
Max Temperature 72 °F 74 °F 89 °F (1983)
Min Temperature 45 °F 50 °F 34 °F (2000)
Degree Days  
Heating Degree Days 6 4  
Month to date heating degree days 22 22  
Since 1 July heating degree days 50 88  
Cooling Degree Days 0 1  
Month to date cooling degree days 3 11  
Year to date cooling degree days 398 338  
Growing Degree Days 8 (Base 50)    
Moisture  
Dew Point 47 °F    
Average Humidity 74    
Maximum Humidity 100    
Minimum Humidity 47    
Precipitation  
Precipitation 0.00 in 0.10 in 2.76 in (1979)
Month to date precipitation 0.91 0.61  
Year to date precipitation 29.70 26.42  
Sea Level Pressure  
Sea Level Pressure 30.02 in    
Wind  
Wind Speed 5 mph (ENE)    
Max Wind Speed 15 mph    
Max Gust Speed 17 mph    
Visibility 5 miles    
Events Fog    
T = Trace of Precipitation, MM = Missing Value Source: NWS Daily Summary

Daily Weather History Graph

Daily Weather History Graph

Search for Another Location

Airport or City:

Astronomy

Sep. 06, 2019 Rise Set
Actual Time 6:23 AM EDT 7:21 PM EDT
Civil Twilight 5:54 AM EDT 7:50 PM EDT
Nautical Twilight 5:19 AM EDT 8:24 PM EDT
Astronomical Twilight 4:43 AM EDT 9:00 PM EDT
Moon 2:42 PM EDT (9/6) No Moon Set
Length of Visible Light 13h 55m
Length of Day
12h 57m
First Quarter, 55% of the Moon is Illuminated
Sep 6
First Quarter
Sep 14
Full
Sep 21
Last Quarter
Sep 28
New
Oct 5
First Quarter

Hourly Weather History & Observations

Time (EDT) Temp. Dew Point Humidity Pressure Visibility Wind Dir Wind Speed Gust Speed Precip Events Conditions
12:21 AM 50.0 °F 48.9 °F 96% 30.07 in 1.5 mi Calm Calm - N/A   Clear
12:30 AM 50.0 °F 48.9 °F 96% 30.07 in 0.8 mi Calm Calm - N/A   Clear
12:53 AM 50.0 °F 48.0 °F 93% 30.08 in 0.5 mi Calm Calm - N/A Fog Fog
1:10 AM 48.9 °F 48.0 °F 97% 30.07 in 2.0 mi Calm Calm - N/A   Clear
1:17 AM 50.0 °F 48.0 °F 93% 30.07 in 10.0 mi Calm Calm - N/A   Clear
1:42 AM 48.0 °F 48.0 °F 100% 30.07 in 0.8 mi Calm Calm - N/A   Clear
1:53 AM 48.9 °F 48.0 °F 97% 30.07 in 0.8 mi Calm Calm - N/A   Clear
2:07 AM 48.0 °F 48.0 °F 100% 30.07 in 2.0 mi Calm Calm - N/A   Clear
2:21 AM 48.0 °F 46.9 °F 96% 30.07 in 1.5 mi Calm Calm - N/A   Clear
2:25 AM 48.0 °F 46.9 °F 96% 30.06 in 4.0 mi Calm Calm - N/A   Clear
2:31 AM 48.0 °F 46.9 °F 96% 30.06 in 1.8 mi Calm Calm - N/A   Clear
2:38 AM 46.9 °F 46.0 °F 97% 30.06 in 4.0 mi Calm Calm - N/A   Clear
2:53 AM 48.0 °F 46.0 °F 93% 30.06 in 10.0 mi Calm Calm - N/A   Clear
3:05 AM 46.0 °F 45.0 °F 96% 30.05 in 1.5 mi Calm Calm - N/A   Clear
3:14 AM 46.9 °F 46.0 °F 97% 30.05 in 0.5 mi Calm Calm - N/A Fog Fog
3:27 AM 48.0 °F 46.9 °F 96% 30.05 in 1.2 mi Calm Calm - N/A   Partly Cloudy
3:31 AM 46.9 °F 45.0 °F 93% 30.04 in 4.0 mi Calm Calm - N/A   Partly Cloudy
3:51 AM 46.4 °F 46.4 °F 100% 30.04 in 1.8 mi Calm Calm - N/A   Clear
3:53 AM 46.9 °F 46.0 °F 97% 30.05 in 1.2 mi Calm Calm - N/A   Clear
4:04 AM 46.0 °F 46.0 °F 100% 30.05 in 3.0 mi Calm Calm - N/A   Clear
4:14 AM 46.9 °F 46.0 °F 97% 30.04 in 1.8 mi Calm Calm - N/A   Clear
4:24 AM 46.9 °F 46.0 °F 97% 30.04 in 0.8 mi Calm Calm - N/A   Clear
4:29 AM 46.9 °F 46.0 °F 97% 30.05 in 2.5 mi Calm Calm - N/A   Clear
4:42 AM 46.9 °F 46.0 °F 97% 30.05 in 1.2 mi Calm Calm - N/A   Clear
4:57 AM 46.9 °F 45.0 °F 93% 30.05 in 3.0 mi Calm Calm - N/A   Clear
5:14 AM 45.0 °F 44.1 °F 97% 30.05 in 2.5 mi Calm Calm - N/A   Partly Cloudy
5:23 AM 45.0 °F 44.1 °F 97% 30.05 in 1.0 mi Calm Calm - N/A   Mist
5:34 AM 46.0 °F 45.0 °F 96% 30.05 in 1.2 mi Calm Calm - N/A   Partly Cloudy
5:42 AM 46.9 °F 45.0 °F 93% 30.05 in 3.0 mi Calm Calm - N/A   Partly Cloudy
5:48 AM 44.6 °F 44.6 °F 100% 30.05 in 1.8 mi Calm Calm - N/A   Partly Cloudy
5:53 AM 46.0 °F 45.0 °F 96% 30.06 in 1.0 mi Calm Calm - N/A   Clear
6:00 AM 45.0 °F 44.1 °F 97% 30.05 in 4.0 mi Calm Calm - N/A   Clear
6:07 AM 45.0 °F 44.1 °F 97% 30.05 in 1.8 mi Calm Calm - N/A   Clear
6:22 AM 46.0 °F 45.0 °F 96% 30.05 in 3.0 mi Calm Calm - N/A   Clear
6:53 AM 48.0 °F 46.0 °F 93% 30.06 in 10.0 mi Calm Calm - N/A   Clear
7:53 AM 48.9 °F 48.0 °F 97% 30.07 in 10.0 mi Calm Calm - N/A   Clear
8:53 AM 57.0 °F 54.0 °F 89% 30.05 in 10.0 mi ENE 3.5 mph - N/A   Clear
9:53 AM 64.0 °F 52.0 °F 65% 30.04 in 10.0 mi NNE 8.1 mph - N/A   Clear
10:53 AM 66.0 °F 50.0 °F 56% 30.02 in 10.0 mi ENE 6.9 mph - N/A   Clear
11:53 AM 68.0 °F 50.0 °F 52% 29.99 in 10.0 mi East 5.8 mph - N/A   Clear
12:53 PM 71.1 °F 50.0 °F 47% 29.97 in 10.0 mi Variable 4.6 mph - N/A   Clear
1:53 PM 72.0 °F 51.1 °F 48% 29.95 in 10.0 mi NE 6.9 mph - N/A   Clear
2:53 PM 71.1 °F 51.1 °F 49% 29.93 in 10.0 mi SE 6.9 mph - N/A   Partly Cloudy
3:53 PM 71.1 °F 52.0 °F 51% 29.90 in 10.0 mi ESE 10.4 mph - N/A   Clear
4:53 PM 70.0 °F 52.0 °F 53% 29.91 in 10.0 mi ESE 8.1 mph - N/A   Clear
5:53 PM 69.1 °F 51.1 °F 53% 29.91 in 10.0 mi ESE 6.9 mph - N/A   Clear
6:53 PM 64.9 °F 50.0 °F 58% 29.91 in 10.0 mi ESE 6.9 mph - N/A   Clear
7:53 PM 63.0 °F 48.9 °F 60% 29.89 in 10.0 mi East 6.9 mph - N/A   Clear
8:53 PM 62.1 °F 48.9 °F 62% 29.88 in 10.0 mi NNE 5.8 mph - N/A   Clear
9:53 PM 61.0 °F 48.9 °F 64% 29.89 in 10.0 mi NNE 6.9 mph - N/A   Clear
10:53 PM 61.0 °F 46.9 °F 60% 29.88 in 10.0 mi NE 8.1 mph - N/A   Clear
11:53 PM 57.9 °F 46.0 °F 65% 29.87 in 10.0 mi North 6.9 mph - N/A   Clear